This demonstration page uses our WeatherBlox Daily Observations layout. Learn more.

Hourly Observations for October 21, 2020

Temp ( °F °C ) Dew Point ( °F °C ) Humidity (%) Winds ( mph kmh ) Pressure ( in mb ) Visibility ( mi km ) Precip ( " mm )
2:53 am 02:53 Mostly Cloudy 45 7.2 37 2.8 74 74 SSE 18 30 29.99 1016 10 16.09 0 0
3:53 am 03:53 Mostly Clear 43 6.1 37 2.8 80 80 SE 13 21 29.98 1015 10 16.09 0 0
5:53 am 05:53 Mostly Cloudy 40 4.4 36 2.2 86 86 E 15 24 29.89 1012 10 16.0934 0 0
6:53 am 06:53 Clear 47 8.3 35 1.7 63 63 SSE 17 28 29.87 1012 10 16.0934 0 0
7:19 am 07:19 Sunny 40 4.4 34 1.1 79 79 E 18 30 29.94 1014 10 16.0934 0 0
7:53 am 07:53 Sunny 45 7.2 35 1.7 68 68 ESE 15 24 29.89 1012 10 16.0934 0 0
8:53 am 08:53 Sunny 49 9.4 36 2.2 61 61 ESE 9 15 29.89 1012 10 16.0934 0 0
9:53 am 09:53 Sunny 55 12.8 37 2.8 51 51 SSE 15 24 29.83 1010 10 16.0934 0 0
10:53 am 10:53 Sunny 61 16.1 37 2.8 41 41 SSE 13 20 29.79 1009 10 16.0934 0 0
11:53 am 11:53 Sunny 67 19.4 37 2.8 33 33 SSE 12 19 29.75 1007 10 16.0934 0 0
12:53 pm 12:53 Sunny 71 21.7 35 1.7 27 27 SSW 8 13 29.71 1006 10 16.0934 0 0
1:16 pm 13:16 Sunny 73 22.8 36 2.2 26 26 SE 14 22 29.55 1001 10 16.0934 0 0
1:53 pm 13:53 Sunny 73 22.8 35 1.7 25 25 S 8 13 29.67 1005 10 16.0934 0 0
2:53 pm 14:53 Sunny 74 23.3 36 2.2 25 25 SSE 15 24 29.65 1004 10 16.0934 0 0
3:53 pm 15:53 Sunny 74 23.3 37 2.8 26 26 ESE 16 26 29.64 1004 10 16.0934 0 0
4:53 pm 16:53 Sunny 72 22.2 37 2.8 28 28 SE 13 20 29.66 1004 10 16.0934 0 0
5:53 pm 17:53 Sunny 63 17.2 38 3.3 40 40 ESE 16 26 29.68 1005 10 16.0934 0 0
6:53 pm 18:53 Clear 58 14.4 39 3.9 50 50 ESE 16 26 29.7 1006 10 16.0934 0 0
7:53 pm 19:53 Clear 53 11.7 39 3.9 59 59 E 17 28 29.74 1007 10 16.0934 0 0
8:53 pm 20:53 Clear 50 10 40 4.4 68 68 E 15 24 29.75 1007 10 16.0934 0 0
9:53 pm 21:53 Clear 40 4.4 36 2.2 86 86 ENE 14 22 29.76 1008 10 16.0934 0 0
10:53 pm 22:53 Partly Cloudy 39 3.9 37 2.8 93 93 ENE 12 19 29.76 1008 10 16.0934 0 0
10:57 pm 22:57 Mostly Cloudy 40 4.4 38 3.3 93 93 ENE 12 19 29.84 1011 10 16.0934 0 0
11:53 pm 23:53 Cloudy 40 4.4 37 2.8 89 89 N 14 22 29.78 1009 10 16.0934 0 0

Powered by AerisWeather